Date String (YYYY-MM-DD hh:mm:ss) UTC,Instrument flags,Ambient pressure (hPa),Sample flow (lpm),Bypass flow (lpm),Sample temperature (°C),Ambient temperature (°C),ASC tube jacket temperature (°C),LED temperature (°C),Box temperature (°C),Sample RH (%),Span deviation,Mass concentration (μg/m³),Mass concentration (μg/m³),Mass concentration (μg/m³)
DateTimeUTC,F1_M11,P_M11,Q1_M11,Q2_M11,T1_M11,T2_M11,T3_M11,T4_M11,T5_M11,U1_M11,ZSPAN_M11,X0_M11,X2_M11,X1_M11
2022-08-30 08:00:00,,0833.2,4.99,0.00,30.1,29.0,00.0,38.8,32.0,22.2,0000.0,0017.40,0007.05,0005.90
2022-08-30 08:01:00,,0833.2,4.99,0.00,30.1,29.1,00.0,38.8,32.0,22.1,0000.0,0018.60,0007.04,0005.90
2022-08-30 08:02:00,,0833.1,5.00,0.00,30.1,29.1,00.0,38.8,32.0,22.1,0000.0,0019.38,0007.04,0005.89
2022-08-30 08:03:00,,0833.1,5.01,0.00,30.1,29.1,00.0,38.8,32.0,22.1,0000.0,0017.63,0007.03,0005.90
2022-08-30 08:04:00,,0833.1,5.01,0.00,30.2,29.1,00.0,38.9,32.0,22.0,0000.0,0016.96,0007.04,0005.90
2022-08-30 08:05:00,,0833.1,5.00,0.00,30.2,29.2,00.0,38.9,32.0,22.0,0000.0,0016.96,0007.03,0005.90
2022-08-30 08:06:00,,0833.1,4.98,0.00,30.2,29.2,00.0,38.9,32.1,22.0,0000.0,0017.28,0007.05,0005.91
2022-08-30 08:07:00,,0833.1,5.01,0.00,30.2,29.2,00.0,38.9,32.1,22.0,0000.0,0016.18,0007.06,0005.92
2022-08-30 08:08:00,,0833.1,4.99,0.00,30.2,28.4,00.0,38.9,32.0,21.9,0000.0,0015.58,0007.07,0005.93
2022-08-30 08:09:00,,0833.1,5.02,0.00,30.2,27.2,00.0,38.9,31.9,21.9,0000.0,0015.31,0007.07,0005.92
2022-08-30 08:10:00,,0833.1,5.00,0.00,30.1,26.9,00.0,38.8,31.9,21.9,0000.0,0015.74,0007.06,0005.90
2022-08-30 08:11:00,,0833.1,5.00,0.00,30.0,27.1,00.0,38.8,31.7,22.1,0000.0,0015.83,0007.09,0005.90
2022-08-30 08:12:00,,0833.1,4.99,0.00,30.0,27.4,00.0,38.7,31.6,22.2,0000.0,0014.95,0007.15,0005.90
2022-08-30 08:13:00,,0833.0,4.99,0.00,29.9,27.7,00.0,38.7,31.6,22.3,0000.0,0015.74,0007.17,0005.91
2022-08-30 08:14:00,,0833.0,5.01,0.00,29.9,27.9,00.0,38.7,31.6,22.4,0000.0,0017.17,0007.24,0005.92
2022-08-30 08:15:00,,0833.1,4.99,0.00,29.9,28.1,00.0,38.7,31.6,22.3,0000.0,0017.77,0007.24,0005.92
2022-08-30 08:16:00,,0833.0,5.00,0.00,29.9,28.3,00.0,38.7,31.7,22.4,0000.0,0018.19,0007.24,0005.91
2022-08-30 08:17:00,,0833.0,5.00,0.00,29.9,28.4,00.0,38.7,31.7,22.3,0000.0,0018.24,0007.22,0005.91
2022-08-30 08:18:00,,0833.0,5.00,0.00,29.9,28.5,00.0,38.7,31.7,22.3,0000.0,0018.51,0007.20,0005.90
2022-08-30 08:19:00,,0833.1,5.00,0.00,29.9,28.6,00.0,38.7,31.7,22.3,0000.0,0018.60,0007.23,0005.89
2022-08-30 08:20:00,,0833.0,5.01,0.00,29.9,28.7,00.0,38.7,31.7,22.2,0000.0,0018.74,0007.18,0005.88
2022-08-30 08:21:00,,0833.1,5.00,0.00,29.9,28.7,00.0,38.7,31.8,22.2,0000.0,0018.20,0007.16,0005.88
2022-08-30 08:22:00,,0833.0,5.00,0.00,30.0,28.8,00.0,38.7,31.8,22.2,0000.0,0017.81,0007.10,0005.87
2022-08-30 08:23:00,,0833.1,4.99,0.00,30.0,28.8,00.0,38.7,31.8,22.1,0000.0,0017.30,0007.02,0005.87
2022-08-30 08:24:00,,0833.0,4.99,0.00,30.0,28.9,00.0,38.7,31.9,22.1,0000.0,0016.11,0006.99,0005.86
2022-08-30 08:25:00,,0833.1,5.01,0.00,30.0,28.9,00.0,38.7,31.9,22.1,0000.0,0014.76,0007.02,0005.86
2022-08-30 08:26:00,,0833.0,5.01,0.00,30.0,28.9,00.0,38.8,31.9,22.0,0000.0,0015.05,0007.04,0005.86
2022-08-30 08:27:00,,0833.0,4.98,0.00,30.0,29.0,00.0,38.8,31.9,22.1,0000.0,0014.56,0007.05,0005.86
2022-08-30 08:28:00,,0833.0,5.00,0.00,30.1,29.0,00.0,38.8,31.9,22.0,0000.0,0015.60,0007.11,0005.86
2022-08-30 08:29:00,,0833.0,5.01,0.00,30.1,29.0,00.0,38.8,31.9,22.0,0000.0,0016.06,0007.18,0005.86
2022-08-30 08:30:00,,0833.0,5.01,0.00,30.1,29.0,00.0,38.8,32.0,22.0,0000.0,0016.71,0007.21,0005.85
2022-08-30 08:31:00,,0832.9,4.98,0.00,30.1,29.1,00.0,38.8,32.0,22.0,0000.0,0017.12,0007.26,0005.84
2022-08-30 08:32:00,,0832.9,5.01,0.00,30.1,29.1,00.0,38.9,32.0,22.0,0000.0,0017.91,0007.29,0005.83
2022-08-30 08:33:00,,0832.9,5.01,0.00,30.2,29.1,00.0,38.9,32.0,22.0,0000.0,0018.42,0007.27,0005.83
2022-08-30 08:34:00,,0832.9,5.00,0.00,30.2,29.1,00.0,38.9,32.0,22.0,0000.0,0018.71,0007.29,0005.82
2022-08-30 08:35:00,,0832.9,5.01,0.00,30.2,29.2,00.0,38.9,32.1,21.9,0000.0,0018.76,0007.26,0005.82
2022-08-30 08:36:00,,0832.9,4.99,0.00,30.2,29.2,00.0,38.9,32.1,21.9,0000.0,0018.55,0007.22,0005.83
2022-08-30 08:37:00,,0832.9,4.99,0.00,30.2,29.2,00.0,38.9,32.1,21.9,0000.0,0018.88,0007.26,0005.84
2022-08-30 08:38:00,,0832.8,5.01,0.00,30.3,29.2,00.0,39.0,32.1,21.9,0000.0,0019.55,0007.25,0005.84
2022-08-30 08:39:00,,0832.9,5.00,0.00,30.3,29.2,00.0,39.0,32.1,21.9,0000.0,0019.44,0007.16,0005.83
2022-08-30 08:40:00,,0832.8,4.99,0.00,30.3,29.2,00.0,39.0,32.1,21.8,0000.0,0018.98,0007.13,0005.83
2022-08-30 08:41:00,,0832.8,5.00,0.00,30.3,28.6,00.0,39.0,32.1,21.8,0000.0,0018.68,0007.11,0005.84
2022-08-30 08:42:00,,0832.9,5.01,0.00,30.3,27.2,00.0,39.0,31.9,21.8,0000.0,0018.71,0007.08,0005.86
2022-08-30 08:43:00,,0832.8,4.99,0.00,30.2,26.9,00.0,38.9,31.9,21.9,0000.0,0017.87,0007.03,0005.87
2022-08-30 08:44:00,,0832.8,5.01,0.00,30.1,27.0,00.0,38.9,31.7,21.8,0000.0,0017.37,0007.06,0005.87
2022-08-30 08:45:00,,0832.9,5.00,0.00,30.0,27.3,00.0,38.8,31.6,22.0,0000.0,0017.38,0007.06,0005.87
2022-08-30 08:46:00,,0832.8,5.01,0.00,30.0,27.6,00.0,38.8,31.7,22.1,0000.0,0017.67,0007.13,0005.87
2022-08-30 08:47:00,,0832.8,5.00,0.00,30.0,27.9,00.0,38.8,31.7,22.1,0000.0,0018.19,0007.14,0005.86
2022-08-30 08:48:00,,0832.8,5.01,0.00,30.0,28.1,00.0,38.8,31.7,22.1,0000.0,0017.65,0007.10,0005.85
2022-08-30 08:49:00,,0832.8,5.00,0.00,29.9,28.2,00.0,38.8,31.7,22.1,0000.0,0017.13,0007.10,0005.84
2022-08-30 08:50:00,,0832.8,4.99,0.00,29.9,28.4,00.0,38.8,31.7,22.0,0000.0,0016.64,0007.16,0005.85
2022-08-30 08:51:00,,0832.8,5.00,0.00,29.9,28.5,00.0,38.8,31.7,22.0,0000.0,0016.32,0007.15,0005.86
2022-08-30 08:52:00,,0832.8,5.00,0.00,30.0,28.6,00.0,38.8,31.7,22.1,0000.0,0015.98,0007.16,0005.87
2022-08-30 08:53:00,,0832.8,5.00,0.00,30.0,28.6,00.0,38.8,31.7,22.0,0000.0,0016.70,0007.21,0005.87
2022-08-30 08:54:00,,0832.8,5.00,0.00,30.0,28.7,00.0,38.8,31.8,22.0,0000.0,0017.33,0007.26,0005.87
2022-08-30 08:55:00,,0832.8,5.00,0.00,30.0,28.7,00.0,38.8,31.8,22.1,0000.0,0017.83,0007.28,0005.87
2022-08-30 08:56:00,,0832.9,5.00,0.00,30.0,28.8,00.0,38.8,31.8,22.0,0000.0,0017.65,0007.32,0005.88
2022-08-30 08:57:00,,0832.9,5.00,0.00,30.0,28.8,00.0,38.8,31.9,22.0,0000.3,0017.75,0007.29,0005.88
2022-08-30 08:58:00,,0832.8,5.00,0.00,30.0,28.9,00.0,38.8,31.9,22.0,0000.2,0017.37,0007.25,0005.89
2022-08-30 08:59:00,,0832.8,4.98,0.00,30.0,28.9,00.0,38.8,31.9,22.2,0000.0,0017.70,0007.26,0005.90
